SCP
0 0 1 1 1 1 1 0 0 0 0 0 0 1 1 1 1 2 2 1 1 1 1 1 1 1 1 1 1 1 1 1 1 1 1 1 0 0 0 0 0 0 0
0 0 1 1 1 1 1 1 0 0 0 0 1 1 1 1 1 1 2 1 1 1 1 1 1 1 1 1 1 1 1 1 1 1 1 0 0 0 0 0 0 0 0
1 1 1 1 1 1 1 1 1 0 0 0 1 1 1 1 1 1 1 1 1 1 1 2 2 2 2 1 1 1 1 1 1 1 1 0 0 0 0 0 0 0 0
1 1 1 1 1 1 1 1 1 1 0 0 1 1 1 1 1 1 1 1 1 2 2 2 2 2 2 2 2 2 1 1 1 1 0 0 0 0 0 0 1 1 1
1 1 1 1 1 1 1 1 1 1 1 1 1 1 1 1 1 1 1 1 1 1 2 2 2 2 2 2 2 2 2 1 1 0 0 0 0 0 0 1 1 1 1
1 1 1 1 1 1 1 1 1 1 1 1 1 1 1 1 1 1 1 1 1 1 1 1 1 1 1 2 2 2 2 1 0 0 0 0 0 0 1 1 1 1 1
1 1 1 1 2 2 1 1 1 1 1 1 1 1 1 1 1 1 1 1 1 1 1 1 1 1 1 1 1 2 1 1 0 0 0 0 0 0 1 1 1 1 1
1 1 1 2 2 2 2 2 1 1 1 1 1 1 1 1 1 1 1 1 1 1 1 1 1 1 1 1 1 1 1 1 0 0 0 0 0 0 1 1 1 1 1
1 1 1 1 2 2 2 2 2 2 1 1 1 1 1 1 1 1 1 1 1 1 1 1 1 1 1 1 1 1 1 1 0 0 0 0 0 1 1 1 1 1 1
1 1 1 1 2 2 2 2 2 2 1 1 1 1 1 1 1 1 1 1 1 1 1 1 1 1 1 1 1 1 1 1 0 0 0 0 0 1 1 1 1 1 2
1 1 1 1 2 2 2 2 2 2 1 1 1 1 1 1 1 1 1 1 1 1 1 1 1 1 1 0 0 1 1 1 0 0 0 0 0 1 1 1 1 1 2
0 0 1 1 1 2 2 2 2 1 1 1 1 1 1 1 1 0 0 1 1 1 1 1 0 0 0 0 0 0 0 1 0 0 0 0 0 1 1 1 1 1 2
0 0 0 1 1 2 2 2 2 1 1 1 1 1 1 1 1 1 0 0 0 0 0 0 0 0 0 0 0 0 0 0 1 0 0 0 1 1 1 1 1 1 2
0 0 0 0 1 1 1 2 2 2 1 1 1 1 1 1 1 1 1 1 1 0 0 0 0 0 0 0 0 0 0 0 1 0 0 0 1 1 1 1 1 1 2
0 0 0 0 0 1 1 1 1 2 1 1 1 1 1 1 1 1 1 1 1 1 1 0 0 0 0 0 0 0 0 0 0 1 0 0 1 1 1 1 1 2 2
0 0 0 0 0 0 0 1 1 1 1 1 1 1 1 1 1 1 1 1 1 1 1 1 0 0 0 0 0 0 0 0 0 1 0 0 1 1 1 1 1 2 2
0 0 0 0 0 0 0 0 1 1 1 1 1 1 1 1 1 1 1 1 1 1 1 1 0 0 0 0 0 0 0 0 0 0 1 0 1 1 1 1 1 1 2
0 0 0 0 0 0 0 0 0 1 1 1 1 1 1 1 1 1 1 1 1 1 1 1 1 0 0 0 0 0 0 0 0 0 1 1 1 1 1 1 1 1 2
0 0 0 0 0 0 0 0 0 0 1 1 1 1 1 1 1 1 1 1 1 1 1 1 1 0 0 0 0 0 0 0 0 0 1 1 1 1 1 1 1 1 1
0 0 0 0 0 0 0 0 0 0 0 1 1 1 1 1 1 1 0 0 0 1 1 1 1 1 0 0 0 0 0 0 0 0 1 1 1 1 1 1 0 0 1
0 0 0 0 0 0 0 0 0 0 0 1 1 1 1 1 1 1 0 0 0 0 1 0 0 1 0 0 0 0 0 0 0 0 0 1 1 1 1 1 0 0 1
0 0 0 0 0 0 0 0 0 0 0 0 1 1 1 0 0 0 0 0 0 0 0 0 0 0 0 0 0 0 0 0 0 0 0 1 1 1 1 1 0 0 0
0 0 0 0 0 0 0 0 0 0 0 0 0 1 1 0 0 0 0 0 0 0 0 0 0 0 0 0 0 0 0 0 0 0 0 0 1 1 1 0 0 0 1
0 0 0 0 0 0 0 0 0 0 0 0 0 0 1 0 0 0 1 0 0 0 0 0 0 0 0 0 0 0 0 0 0 0 0 0 1 1 0 0 0 0 1
0 0 0 0 0 0 0 0 0 0 0 0 0 0 0 0 0 0 1 1 0 0 0 0 0 0 0 0 0 0 0 0 0 0 0 0 1 0 0 0 0 1 1
0 0 0 0 0 0 0 0 0 0 0 0 0 0 0 0 0 1 1 1 0 0 0 0 0 0 0 0 0 0 0 0 0 0 0 0 0 0 0 0 0 1 1
Wind_Speed
1 1 3 5 7 8 9 9 9 9 10 10 10 11 11 11 10 10 10 10 10 10 11 12 12 12 13 13 13 13 13 13 13 13 13 12 13 14 14 13 12 9 15
2 1 4 6 7 8 9 9 9 9 9 10 10 10 10 10 10 10 10 10 10 10 11 11 11 11 12 12 12 12 12 12 12 12 11 10 11 12 13 13 12 9 14
3 2 3 6 8 9 9 9 9 9 9 9 9 9 10 10 10 10 10 10 10 10 10 11 11 11 11 11 11 12 12 11 11 10 9 5 7 11 12 12 12 13 13
4 3 3 7 8 9 9 9 9 9 9 9 9 9 9 10 10 10 10 10 10 9 10 10 10 10 10 10 10 11 11 10 10 8 5 4 4 10 11 12 12 12 12
4 3 3 7 8 9 9 9 9 9 9 8 9 9 9 9 9 10 10 10 10 10 9 9 9 9 9 9 10 10 10 10 9 7 4 4 3 9 11 11 11 12 12
4 3 4 8 8 9 9 9 9 9 9 8 8 9 8 9 9 9 9 9 9 9 9 9 9 8 8 8 9 10 10 10 7 4 4 3 3 7 9 10 11 11 11
4 4 4 8 8 9 9 9 9 9 9 8 8 8 8 8 9 8 9 9 9 9 9 9 8 8 8 8 9 9 9 8 5 4 3 3 4 7 8 9 10 10 10
5 4 4 7 8 8 8 8 9 9 9 8 8 8 8 8 8 8 8 8 8 8 8 8 8 8 8 8 8 8 8 7 5 4 3 3 5 7 7 8 9 9 10
5 5 4 4 5 7 8 8 8 8 8 9 8 8 8 8 8 8 8 8 8 7 8 8 8 8 8 8 8 7 8 7 4 2 3 2 5 7 7 7 8 9 9
5 5 5 4 4 3 4 7 8 8 8 8 8 8 7 7 7 7 6 7 7 7 7 7 8 8 8 7 7 7 7 5 3 2 1 2 5 6 6 7 8 8 8
5 4 4 4 3 3 3 5 6 6 7 7 6 7 6 3 3 4 5 6 7 7 6 7 7 7 7 6 6 6 5 2 2 2 1 2 5 5 5 6 6 7 8
3 3 3 3 3 2 3 2 2 3 3 3 3 3 3 2 2 3 4 6 6 6 6 6 6 6 5 3 4 4 2 2 2 1 1 2 3 4 5 5 5 6 7
1 2 3 3 3 3 2 2 1 1 2 2 3 3 2 2 2 2 2 3 3 4 3 4 3 3 3 2 2 2 2 1 1 1 0 1 2 4 4 4 5 5 6
2 2 2 3 3 3 2 2 1 1 1 1 2 2 2 2 2 2 1 2 2 2 2 2 1 2 2 2 2 1 1 1 1 1 1 0 1 2 4 4 5 5 5
2 1 2 2 2 2 3 2 2 1 1 1 1 1 2 1 1 1 1 1 1 1 1 1 1 1 2 2 2 2 1 1 1 1 1 1 1 1 3 4 5 5 5
1 1 1 2 3 3 2 2 1 1 1 1 1 1 1 1 1 1 1 1 1 1 1 1 1 1 1 1 2 2 1 0 0 1 1 1 2 2 2 2 4 5 5
2 1 1 2 3 3 2 2 2 1 1 1 1 1 1 1 1 1 0 1 1 1 1 1 1 1 1 1 1 1 1 1 1 1 1 1 1 2 2 3 3 4 5
2 2 2 2 3 3 2 2 2 2 2 1 1 1 1 1 1 1 0 1 1 1 0 0 0 1 1 1 1 1 1 1 1 1 1 1 1 1 2 2 3 3 4
3 3 2 2 2 2 2 2 2 2 2 1 1 1 1 1 1 1 0 1 1 1 0 0 0 0 0 1 1 1 1 1 1 1 1 1 1 1 1 2 3 3 3
3 3 2 2 2 2 2 2 2 3 2 2 1 1 2 1 1 1 0 1 1 1 1 1 1 1 0 0 1 2 2 1 1 1 1 0 1 1 1 1 1 2 2
3 3 2 2 1 2 2 2 2 2 2 2 2 2 2 2 1 1 1 0 1 0 1 1 1 0 1 1 1 2 2 1 1 1 1 0 1 1 1 1 1 1 1
2 2 1 1 1 1 1 0 0 1 1 2 2 2 2 2 1 1 1 1 0 0 1 1 0 0 1 0 1 0 1 2 2 2 1 0 1 1 1 1 1 1 2
1 1 1 1 0 0 1 1 1 2 2 2 3 2 2 2 1 1 1 1 1 0 1 1 1 1 1 1 1 1 1 2 2 2 1 1 0 1 1 1 1 1 2
1 1 1 1 0 0 0 1 1 0 1 2 2 3 3 2 2 1 1 1 1 1 1 2 1 1 2 2 2 1 1 1 1 1 2 1 1 1 1 2 2 1 1
1 1 1 1 0 0 0 1 1 1 2 2 2 3 3 2 2 2 1 1 1 1 2 2 2 1 2 2 2 1 1 1 1 2 2 2 2 2 2 2 2 2 1
1 1 1 1 1 1 1 1 2 2 2 2 3 2 3 2 2 2 2 2 2 2 2 2 2 2 2 2 2 2 2 2 2 2 2 3 3 2 2 2 3 2 2
Wind_Direction
268 293 42 58 73 72 71 70 67 64 63 62 61 61 61 61 64 69 74 72 71 70 72 74 74 74 75 75 75 74 76 76 76 75 73 76 82 85 85 83 80 77 84
163 100 67 64 75 76 74 73 69 66 63 63 63 62 62 63 65 66 71 72 71 70 72 73 75 76 77 77 77 76 76 78 77 74 69 70 79 85 87 87 86 88 87
116 97 84 71 78 79 76 76 72 68 67 66 66 65 63 63 64 66 67 68 70 71 72 73 75 76 76 77 78 78 77 78 76 70 65 60 76 84 88 88 91 90 89
111 99 91 76 78 81 78 76 74 70 69 67 67 66 65 64 64 64 65 65 66 69 71 73 75 77 76 74 77 78 75 72 71 66 59 53 71 85 89 89 93 93 91
93 86 91 80 80 80 79 75 73 71 69 66 65 64 65 65 64 64 64 63 63 65 67 72 75 75 74 73 76 77 71 69 67 62 57 54 66 87 90 92 93 92 93
83 79 88 80 80 77 79 76 72 71 71 68 66 64 63 64 65 63 62 62 64 65 64 68 72 72 73 74 75 74 70 67 64 61 56 55 67 89 92 94 95 94 94
83 75 86 80 78 75 75 75 72 68 67 70 70 66 63 63 64 64 62 62 65 67 67 67 69 68 67 71 73 73 71 63 64 64 59 58 77 93 96 98 99 98 97
89 82 78 75 72 69 69 71 71 69 63 62 67 67 63 60 60 62 62 63 66 71 71 69 64 62 65 68 70 72 66 65 66 66 61 65 83 94 100 102 102 101 102
76 70 64 67 64 61 62 63 64 64 60 56 57 61 58 55 56 59 58 60 62 69 72 69 63 56 59 66 68 67 61 57 59 57 73 67 88 98 105 108 106 104 104
64 59 48 49 55 54 56 59 56 60 60 56 53 52 53 50 48 52 49 54 57 62 68 65 60 54 51 56 63 63 54 50 49 46 60 83 91 99 105 114 115 111 109
53 44 47 40 39 47 58 54 49 53 55 54 51 47 48 43 39 42 39 47 49 51 61 65 57 48 42 44 52 57 47 43 42 44 58 90 101 101 107 114 122 121 119
49 34 35 38 30 36 53 53 38 42 46 48 45 41 37 35 38 41 34 40 43 42 46 54 50 40 32 29 36 41 43 29 32 24 59 96 118 117 117 121 123 128 129
96 52 34 36 32 32 39 49 34 29 40 43 42 38 40 39 36 35 32 29 33 36 33 33 36 28 24 18 21 27 40 29 10 345 23 112 137 136 134 135 135 136 137
87 62 37 36 37 32 28 40 50 38 34 42 35 41 52 49 37 29 28 22 23 17 22 18 12 20 26 20 27 32 33 24 2 335 338 224 179 160 156 155 156 154 152
93 52 34 42 43 34 38 27 43 21 18 34 43 37 54 66 55 33 18 30 14 7 18 6 355 11 17 16 24 32 18 26 357 338 321 308 282 212 178 175 174 174 171
141 121 54 53 48 44 45 30 27 15 354 11 46 25 52 79 88 52 8 32 8 350 347 346 329 359 357 5 14 10 347 334 315 315 314 306 300 278 233 201 193 189 187
165 130 86 76 54 49 46 29 21 9 15 4 355 10 25 54 101 96 24 348 320 338 349 357 356 21 13 4 351 336 333 312 270 265 276 280 290 295 277 245 227 206 198
136 113 80 72 58 48 40 29 17 6 19 8 353 9 15 32 56 82 107 297 306 333 343 323 34 22 355 348 331 311 314 305 264 252 257 263 280 287 291 282 271 239 216
146 129 97 71 67 47 38 34 21 17 9 357 1 10 356 18 32 38 200 261 301 338 346 304 8 5 295 326 316 318 307 296 267 259 258 267 294 316 307 317 314 290 239
129 118 102 79 64 55 46 34 23 17 358 357 358 4 0 358 12 12 23 322 321 12 347 335 331 331 246 284 333 340 317 298 299 268 237 270 347 350 354 338 329 306 285
106 109 112 97 63 63 49 34 11 351 340 339 340 352 356 344 0 3 4 330 344 329 292 306 326 313 320 42 47 351 333 326 331 346 350 50 8 7 26 19 360 351 309
123 120 115 111 96 61 49 14 316 308 308 318 315 328 341 342 334 344 350 289 294 333 329 325 328 255 278 62 114 51 333 328 337 337 317 82 21 20 10 353 344 6 348
126 159 168 176 126 43 47 45 24 13 351 347 332 322 325 326 316 308 315 298 277 196 236 285 251 207 228 245 199 171 174 233 295 303 310 304 1 353 337 331 323 334 338
207 197 187 187 137 102 116 116 101 359 303 296 298 299 301 302 305 305 297 300 268 250 247 264 286 261 219 234 251 260 236 196 205 265 289 278 283 283 288 310 303 301 317
204 198 198 191 209 257 216 170 173 270 276 292 294 301 299 294 290 280 285 276 272 260 250 255 273 252 241 241 236 255 262 259 236 220 256 266 266 244 246 250 259 258 269
200 200 196 194 239 251 236 219 205 232 263 282 292 283 296 289 285 268 271 259 257 261 254 247 243 239 244 253 251 234 224 217 220 223 234 248 255 252 258 246 239 232 238